SR7U-1 Weather Reports


Display with metric or nautical units.
time (UTC)temp
F
wind
direction
speed
MPH
gust
MPH
rain 1hr
in
rain 24hr
in
rain mn
in
humidity
%
barometer
mb
20260506165300 73 0.0 0.0 0.00 0.00 0.00 44 1005.5
20260506163840 74 0.0 0.0 0.00 0.00 0.00 42 1005.5
20260506162600 74 0.0 0.0 0.00 0.00 0.00 40 1005.5
20260506161312 76 0.0 0.0 0.00 0.00 0.00 37 1005.6
20260506155950 76 0.0 0.0 0.00 0.00 0.00 37 1005.7
20260506154645 76 0.0 0.0 0.00 0.00 0.00 37 1005.8
20260506153420 75 0.0 0.0 0.00 0.00 0.00 38 1005.7
20260506152122 76 0.0 0.0 0.00 0.00 0.00 36 1005.8
20260506150635 77 0.0 0.0 0.00 0.00 0.00 36 1005.8
20260506145202 77 0.0 0.0 0.00 0.00 0.00 36 1005.9
20260506143952 76 0.0 0.0 0.00 0.00 0.00 36 1006.0
20260506142721 76 0.0 0.0 0.00 0.00 0.00 37 1006.0
20260506141415 77 0.0 0.0 0.00 0.00 0.00 37 1006.2
20260506140110 75 0.0 0.0 0.00 0.00 0.00 39 1006.3
20260506134750 74 0.0 0.0 0.00 0.00 0.00 40 1006.2
20260506133521 76 0.0 0.0 0.00 0.00 0.00 38 1006.3
20260506132300 75 0.0 0.0 0.00 0.00 0.00 40 1006.3
20260506131010 75 0.0 0.0 0.00 0.00 0.00 39 1006.4
20260506125635 75 0.0 0.0 0.00 0.00 0.00 39 1006.4
20260506124414 75 0.0 0.0 0.00 0.00 0.00 40 1006.4
20260506123040 74 0.0 0.0 0.00 0.00 0.00 40 1006.5
20260506121550 73 0.0 0.0 0.00 0.00 0.00 42 1006.4
20260506120325 74 0.0 0.0 0.00 0.00 0.00 43 1006.4
20260506115010 74 0.0 0.0 0.00 0.00 0.00 43 1006.4
20260506113610 73 0.0 0.0 0.00 0.00 0.00 43 1006.4
20260506112225 72 0.0 0.0 0.00 0.00 0.00 46 1006.6
20260506111010 72 0.0 0.0 0.00 0.00 0.00 46 1006.6
20260506105525 72 0.0 0.0 0.00 0.00 0.00 45 1006.6
20260506104319 72 0.0 0.0 0.00 0.00 0.00 47 1006.6
20260506102820 71 0.0 0.0 0.00 0.00 0.00 49 1006.6
20260506101335 71 0.0 0.0 0.00 0.00 0.00 47 1006.6
20260506100122 71 0.0 0.0 0.00 0.00 0.00 48 1006.5
20260506094625 70 0.0 0.0 0.00 0.00 0.00 49 1006.4
20260506093150 70 0.0 0.0 0.00 0.00 0.00 50 1006.5
20260506091910 69 0.0 0.0 0.00 0.00 0.00 52 1006.5
20260506090615 69 0.0 0.0 0.00 0.00 0.00 50 1006.4
20260506085230 68 0.0 0.0 0.00 0.00 0.00 53 1006.3
20260506083922 67 0.0 0.0 0.00 0.00 0.00 52 1006.3
20260506082515 68 0.0 0.0 0.00 0.00 0.00 50 1006.2
20260506081057 69 0.0 0.0 0.00 0.00 0.00 48 1006.1
20260506073143 67 0.0 0.0 0.00 0.00 0.00 49 1005.8
20260506071905 68 0.0 0.0 0.00 0.00 0.00 47 1005.9
20260506070610 66 0.0 0.0 0.00 0.00 0.00 50 1005.9
20260506061453 64 0.0 0.0 0.00 0.00 0.00 50 1005.9
20260506050555 62 0.0 0.0 0.00 0.00 0.00 51 1005.8
20260506045130 59 0.0 0.0 0.00 0.00 0.00 55 1005.8
20260506043705 57 0.0 0.0 0.00 0.00 0.00 57 1005.7
20260506042316 56 0.0 0.0 0.00 0.00 0.00 59 1005.6
20260506041050 56 0.0 0.0 0.00 0.00 0.00 59 1005.7
20260506035710 55 0.0 0.0 0.00 0.00 0.00 60 1005.7
20260506034242 54 0.0 0.0 0.00 0.00 0.00 61 1005.8
20260506032924 53 0.0 0.0 0.00 0.00 0.00 65 1005.6
20260506031427 53 0.0 0.0 0.00 0.00 0.00 63 1005.7
20260506025942 54 0.0 0.0 0.00 0.00 0.00 62 1005.7
20260506024705 53 0.0 0.0 0.00 0.00 0.00 61 1005.8
20260506023220 54 0.0 0.0 0.00 0.00 0.00 61 1005.7
20260506021945 54 0.0 0.0 0.00 0.00 0.00 60 1005.9
20260506020448 54 0.0 0.0 0.00 0.00 0.00 60 1005.9
20260506015142 51 0.0 0.0 0.00 0.00 0.00 68 1006.1
20260506013740 54 0.0 0.0 0.00 0.00 0.00 61 1006.1
20260506012530 53 0.0 0.0 0.00 0.00 0.00 60 1006.1
20260506011210 53 0.0 0.0 0.00 0.00 0.00 63 1006.0
20260506005735 53 0.0 0.0 0.00 0.00 0.00 62 1006.3
20260506004500 57 0.0 0.0 0.00 0.00 0.00 54 1006.4
20260506003013 55 0.0 0.0 0.00 0.00 0.00 54 1006.4
20260506001718 55 0.0 0.0 0.00 0.00 0.00 57 1006.2
20260506000457 55 0.0 0.0 0.00 0.00 0.00 54 1006.4
20260505235045 55 0.0 0.0 0.00 0.00 0.00 55 1006.5
20260505233740 56 0.0 0.0 0.00 0.00 0.00 53 1006.6
20260505232358 58 0.0 0.0 0.00 0.00 0.00 48 1006.7
20260505230900 61 0.0 0.0 0.00 0.00 0.00 42 1006.7
20260505225430 63 0.0 0.0 0.00 0.00 0.00 39 1006.8
20260505224013 64 0.0 0.0 0.00 0.00 0.00 37 1006.9
20260505222630 63 0.0 0.0 0.00 0.00 0.00 37 1006.7
20260505221315 63 0.0 0.0 0.00 0.00 0.00 37 1006.7
20260505220020 65 0.0 0.0 0.00 0.00 0.00 35 1006.7
20260505214730 66 0.0 0.0 0.00 0.00 0.00 34 1006.7
20260505213230 66 0.0 0.0 0.00 0.00 0.00 34 1006.8
20260505211945 66 0.0 0.0 0.00 0.00 0.00 33 1006.8
20260505210737 67 0.0 0.0 0.00 0.00 0.00 31 1006.8
20260505205345 68 0.0 0.0 0.00 0.00 0.00 30 1006.8
20260505204108 68 0.0 0.0 0.00 0.00 0.00 30 1006.8
20260505202822 68 0.0 0.0 0.00 0.00 0.00 30 1006.8
20260505201340 69 0.0 0.0 0.00 0.00 0.00 29 1006.7
20260505195950 69 0.0 0.0 0.00 0.00 0.00 29 1006.7
20260505194720 69 0.0 0.0 0.00 0.00 0.00 30 1006.6
20260505193520 70 0.0 0.0 0.00 0.00 0.00 27 1006.5
20260505192138 70 0.0 0.0 0.00 0.00 0.00 27 1006.7
20260505190730 70 0.0 0.0 0.00 0.00 0.00 27 1006.7
20260505185230 72 0.0 0.0 0.00 0.00 0.00 27 1006.7
20260505183930 73 0.0 0.0 0.00 0.00 0.00 27 1006.5
20260505182555 73 0.0 0.0 0.00 0.00 0.00 28 1006.4
20260505181235 73 0.0 0.0 0.00 0.00 0.00 29 1006.3
20260505175845 73 0.0 0.0 0.00 0.00 0.00 33 1006.2
20260505174555 75 0.0 0.0 0.00 0.00 0.00 29 1006.2
20260505173338 76 0.0 0.0 0.00 0.00 0.00 26 1006.1
20260505172000 78 0.0 0.0 0.00 0.00 0.00 24 1006.1
20260505170742 78 0.0 0.0 0.00 0.00 0.00 23 1006.2
20260505165450 79 0.0 0.0 0.00 0.00 0.00 22 1006.2